Columbia Owens, SC

7:25 AM EST on November 13, 2019 (GMT -0500)
Columbia Owens Downtown

Weather History for KCUB - September, 2019

Change the Weather History Date:

Thursday, September 19, 2019

  Actual Average Record
Temperature  
Mean Temperature 72 °F 75 °F  
Max Temperature 82 °F 85 °F 95 °F (2010)
Min Temperature 62 °F 65 °F 57 °F (2003)
Degree Days  
Heating Degree Days 0 0  
Month to date heating degree days 0 0  
Since 1 July heating degree days 0 0  
Cooling Degree Days 7 10  
Month to date cooling degree days 339 237  
Year to date cooling degree days 2462 2055  
Growing Degree Days 22 (Base 50)    
Moisture  
Dew Point 48 °F    
Average Humidity 44    
Maximum Humidity 72    
Minimum Humidity 22    
Precipitation  
Precipitation 0.00 in 0.13 in 2.07 in (2014)
Month to date precipitation 0.79 2.70  
Year to date precipitation 23.97 34.55  
Sea Level Pressure  
Sea Level Pressure 30.21 in    
Wind  
Wind Speed 4 mph (ENE)    
Max Wind Speed 14 mph    
Max Gust Speed 21 mph    
Visibility 10 miles    
Events      
T = Trace of Precipitation, MM = Missing Value Source: NWS Daily Summary

Daily Weather History Graph

Daily Weather History Graph

Search for Another Location

Airport or City:

Astronomy

Sep. 19, 2019 Rise Set
Actual Time 7:09 AM EDT 7:25 PM EDT
Civil Twilight 6:44 AM EDT 7:50 PM EDT
Nautical Twilight 6:15 AM EDT 8:19 PM EDT
Astronomical Twilight 5:45 AM EDT 8:48 PM EDT
Moon 10:47 PM EDT (9/19) 11:58 AM EDT (9/19)
Length of Visible Light 13h 05m
Length of Day
12h 15m
Waning Gibbous, 74% of the Moon is Illuminated
Sep 19
Waning Gibbous
Sep 21
Last Quarter
Sep 28
New
Oct 5
First Quarter
Oct 13
Full

Hourly Weather History & Observations

Time (EDT) Temp. Dew Point Humidity Pressure Visibility Wind Dir Wind Speed Gust Speed Precip Events Conditions
12:53 AM 73.0 °F 55.0 °F 53% 30.16 in 10.0 mi Calm Calm - N/A   Overcast
1:53 AM 72.0 °F 53.1 °F 51% 30.17 in 10.0 mi Variable 4.6 mph - N/A   Overcast
2:53 AM 70.0 °F 53.1 °F 55% 30.17 in 10.0 mi Variable 4.6 mph - N/A   Partly Cloudy
3:53 AM 68.0 °F 52.0 °F 56% 30.18 in 10.0 mi Variable 4.6 mph - N/A   Clear
4:53 AM 66.0 °F 52.0 °F 60% 30.20 in 10.0 mi Calm Calm - N/A   Clear
5:53 AM 64.0 °F 52.0 °F 65% 30.21 in 10.0 mi Calm Calm - N/A   Clear
6:53 AM 62.1 °F 52.0 °F 70% 30.22 in 10.0 mi ENE 4.6 mph - N/A   Clear
7:53 AM 62.1 °F 53.1 °F 72% 30.23 in 10.0 mi Variable 3.5 mph - N/A   Clear
8:53 AM 66.9 °F 52.0 °F 59% 30.25 in 10.0 mi Variable 3.5 mph - N/A   Clear
9:53 AM 73.0 °F 48.0 °F 41% 30.25 in 10.0 mi Variable 4.6 mph - N/A   Clear
10:53 AM 73.0 °F 44.1 °F 35% 30.26 in 10.0 mi ENE 8.1 mph 18.4 mph N/A   Clear
11:53 AM 75.9 °F 44.1 °F 32% 30.25 in 10.0 mi ENE 10.4 mph 18.4 mph N/A   Clear
12:53 PM 78.1 °F 43.0 °F 29% 30.24 in 10.0 mi Variable 5.8 mph - N/A   Clear
1:53 PM 80.1 °F 42.1 °F 26% 30.23 in 10.0 mi Variable 4.6 mph - N/A   Clear
2:53 PM 80.1 °F 42.1 °F 26% 30.22 in 10.0 mi NNE 9.2 mph - N/A   Clear
3:53 PM 82.0 °F 39.9 °F 22% 30.19 in 10.0 mi ENE 8.1 mph - N/A   Clear
4:53 PM 81.0 °F 39.9 °F 23% 30.19 in 10.0 mi Variable 5.8 mph - N/A   Clear
5:53 PM 81.0 °F 42.1 °F 25% 30.19 in 10.0 mi North - - N/A   Clear
6:53 PM 79.0 °F 42.1 °F 27% 30.19 in 10.0 mi ENE 4.6 mph - N/A   Clear
7:53 PM 73.9 °F 44.1 °F 34% 30.19 in 10.0 mi Calm Calm - N/A   Clear
8:53 PM 72.0 °F 46.9 °F 41% 30.21 in 10.0 mi Variable 3.5 mph - N/A   Clear
9:53 PM 69.1 °F 48.0 °F 47% 30.23 in 10.0 mi Calm Calm - N/A   Clear
10:53 PM 68.0 °F 50.0 °F 52% 30.25 in 10.0 mi Variable 3.5 mph - N/A   Clear
11:53 PM 66.9 °F 51.1 °F 57% 30.25 in 10.0 mi Variable 4.6 mph - N/A   Clear